[[{"header":{"parameterUnit":"m.s-1","parameterCategory":1,"la1":30.2991,"la2":30.254,"lo1":-89.0895,"lo2":-89.0444,"dy":0.0017,"dx":0.0017,"nx":28,"ny":28,"refTime":"2025-02-13T09:00:00:Z","depth":0,"parameterNumber":2,"parameterNumberName":"U-component_of_WINDS"},"data":[0,0,0,0,0,0,0,0,0,0,0,0,0,0,0,0,0,0,0,0,0,0,0,0,0,0,0,0,0,0,0,0,0,0,0,0,0,0,0,0,0,0,0,0,0,0,0,0,0,0,0,0,0,0,0,0,0,0,0.8044,0.8044,0,0.8077,0.8078,0.8078,0.8091,0.8091,0.8091,0.8091,0.8123,0.8124,0.8125,0,0,0,0,0,0,0,0,0,0,0,0,0,0.7992,0.7993,0.8044,0.8044,0.8045,0.8077,0.8078,0.8078,0.8091,0.8091,0.8091,0.8091,0.8123,0.8124,0.8125,0,0,0,0,0,0,0,0,0,0,0,0,0,0.8019,0.7993,0.8044,0.8055,0.8057,0.8077,0.8078,0.8078,0.8091,0.8091,0.8091,0.8091,0.8122,0.8124,0.8125,0.8136,0,0,0.8129,0.813,0,0,0,0,0,0,0,0,0.8017,0.802,0.8053,0.8055,0.8056,0.808,0.8071,0.8098,0.8091,0.8078,0.8091,0.8091,0.8109,0.8111,0.8118,0.8138,0.8139,0.813,0.813,0.8131,0.8131,0,0,0,0,0,0,0,0.8015,0.8019,0.8057,0.8054,0.8055,0.8059,0.8062,0.8076,0.8094,0.8079,0.808,0.8084,0.811,0.8116,0.8119,0.814,0.813,0.8131,0.8132,0.8132,0.8172,0.8172,0,0,0,0,0,0,0.8012,0.8017,0.8056,0.8058,0.8036,0.806,0.8064,0.8072,0.8094,0.8097,0.8084,0.8085,0.8114,0.8117,0.812,0.8135,0.8131,0.8132,0.8133,0.8172,0.8172,0.8172,0,0,0,0,0,0,0.801,0.8015,0.8055,0.8038,0.8044,0.8061,0.807,0.8073,0.808,0.8097,0.81,0.8088,0.8114,0.8118,0.8133,0.8136,0.8133,0.8134,0.8172,0.8172,0.8172,0.8165,0,0,0,0,0,0,0.8009,0.8014,0.8019,0.8038,0.8044,0.8067,0.807,0.8074,0.8083,0.8083,0.8102,0.8104,0.8114,0.813,0.8134,0.8138,0.8135,0.8171,0.8172,0.8172,0.8165,0.8165,0.8165,0,0,0,0,0,0.8007,0.8014,0.8019,0.8023,0.805,0.8067,0.8071,0.8082,0.8083,0.8087,0.8099,0.8104,0.8135,0.8132,0.8136,0.814,0.8171,0.8172,0.8172,0.8165,0.8165,0.8165,0,0,0,0,0,0,0.7994,0.8017,0.8022,0.8036,0.805,0.8069,0.8075,0.8082,0.8095,0.8095,0.8108,0.8112,0.8126,0.8135,0.813,0.8153,0.8154,0.8155,0.8147,0.8147,0.8147,0.8144,0.8137,0,0,0,0,0,0.7993,0.8005,0.8025,0.8035,0.8042,0.8057,0.8065,0.8073,0.8087,0.8093,0.8105,0.8119,0.8132,0.814,0.8153,0.8166,0.8171,0.8172,0.8172,0.8172,0.8172,0.8181,0.8182,0.8174,0.8174,0.8174,0,0,0.799,0.8004,0.8011,0.8033,0.8044,0.8057,0.8062,0.8074,0.8084,0.8095,0.811,0.8119,0.8135,0.815,0.8157,0.8158,0.8176,0.8172,0.8172,0.8173,0.8182,0.8183,0.8183,0.8174,0.8174,0.8174,0,0,0.7992,0.8004,0.8014,0.8026,0.8044,0.8055,0.8057,0.8077,0.8084,0.8099,0.8108,0.812,0.8141,0.8153,0.8161,0.817,0.8175,0.8174,0.8173,0.8182,0.8183,0.8183,0.8187,0.8188,0.8175,0.8175,0.8175,0,0.7986,0.8005,0.8019,0.8032,0.8041,0.8053,0.8064,0.8075,0.8095,0.8102,0.8103,0.8132,0.8143,0.8161,0.8163,0.817,0.8174,0.8171,0.8182,0.8182,0.8183,0.8186,0.8188,0.8174,0.8174,0.8174,0.8174,0,0.7998,0.8011,0.8018,0.8039,0.8049,0.8061,0.8076,0.8086,0.8093,0.8104,0.812,0.8135,0.8151,0.8156,0.8163,0.8176,0.8176,0.8179,0.818,0.8183,0.8187,0.8188,0.8174,0.8174,0.8174,0.8174,0,0,0.799,0.802,0.8022,0.8033,0.8054,0.8065,0.8077,0.8095,0.8102,0.8117,0.8128,0.8147,0.8151,0.8161,0.817,0.8177,0.8184,0.818,0.818,0.818,0.8199,0.8196,0.8197,0.8188,0.8188,0.8189,0.8198,0,0.7995,0.8018,0.8032,0.805,0.8063,0.8076,0.8087,0.8102,0.8112,0.8125,0.8137,0.8151,0.8154,0.8161,0.8169,0.8181,0.8188,0.8181,0.8198,0.8199,0.8194,0.8199,0.8196,0.8204,0.8199,0.8199,0.82,0,0.8002,0.8018,0.8038,0.8059,0.8065,0.8075,0.8093,0.8105,0.8122,0.8129,0.8142,0.8151,0.8165,0.8166,0.8186,0.8181,0.8189,0.8197,0.8197,0.8199,0.8199,0.8201,0.8206,0.8207,0.8202,0.8201,0.8201,0,0.7995,0.8021,0.8037,0.8045,0.807,0.8077,0.8088,0.8105,0.8115,0.8131,0.8137,0.8154,0.8163,0.8176,0.819,0.8189,0.8209,0.821,0.8215,0.8215,0.8218,0.8218,0.8225,0.8224,0.8224,0.8224,0.8224,0,0.7998,0.801,0.8034,0.8043,0.8057,0.8073,0.8086,0.8098,0.8114,0.8126,0.8138,0.8149,0.8166,0.818,0.819,0.8206,0.821,0.8216,0.8219,0.8215,0.8214,0.822,0.822,0.8224,0.8224,0.8224,0.8224,0,0.7992,0.8008,0.8026,0.805,0.8056,0.8065,0.8085,0.8095,0.8107,0.8122,0.8127,0.8146,0.8163,0.8178,0.82,0.8207,0.8223,0.8226,0.8217,0.8218,0.8223,0.8222,0.8233,0.8236,0.8234,0.8234,0.8234,0,0.7993,0.8002,0.8027,0.8037,0.8047,0.8062,0.8073,0.809,0.8101,0.8122,0.8129,0.8147,0.8162,0.8188,0.8204,0.8221,0.8225,0.8228,0.8227,0.8223,0.8225,0.8224,0.8225,0.8227,0.8227,0.8227,0.8227,0,0.7992,0.8,0.8016,0.8035,0.8047,0.8063,0.8078,0.8085,0.8105,0.8117,0.8134,0.8146,0.817,0.8187,0.8206,0.8217,0.8225,0.8227,0.8229,0.8225,0.8219,0.8223,0.8216,0.8227,0.8227,0.8227,0.8227,0.8227,0.7989,0.7999,0.8018,0.8035,0.8049,0.8064,0.8075,0.809,0.8105,0.8126,0.8135,0.8153,0.8171,0.8198,0.8209,0.8224,0.8225,0.8228,0.8229,0.8229,0.8229,0.8218,0.8227,0.8227,0.8227,0.8227,0.8227,0,0.7989,0.8003,0.8019,0.8041,0.8055,0.8063,0.8081,0.8092,0.8108,0.8125,0.814,0.8161,0.8179,0.8197,0.8215,0.8223,0.8228,0.8228,0.8227,0.8229,0.8226,0.8222,0.8224,0.8224,0.8224,0.8224,0.8224,0.8224,0.7991,0.8008,0.8019,0.8043,0.8057,0.8075,0.8085,0.8099,0.8113,0.8136,0.8151,0.8163,0.818,0.8201,0.8218,0.8222,0.8229,0.8228,0.8233,0.8229,0.823,0.823,0.8226,0.8229,0.8229,0.8236,0.8236,0.8236]},{"header":{"parameterUnit":"m.s-1","parameterCategory":1,"la1":30.2991,"la2":30.254,"lo1":-89.0895,"lo2":-89.0444,"dy":0.0017,"dx":0.0017,"nx":28,"ny":28,"refTime":"2025-02-13T09:00:00:Z","depth":0,"parameterNumber":3,"parameterNumberName":"V-component_of_WINDS"},"data":[0,0,0,0,0,0,0,0,0,0,0,0,0,0,0,0,0,0,0,0,0,0,0,0,0,0,0,0,0,0,0,0,0,0,0,0,0,0,0,0,0,0,0,0,0,0,0,0,0,0,0,0,0,0,0,0,0,0,-7.3753,-7.3754,0,-7.3844,-7.3845,-7.3846,-7.3802,-7.38,-7.3797,-7.3795,-7.388,-7.3885,-7.3889,0,0,0,0,0,0,0,0,0,0,0,0,0,-7.3535,-7.3539,-7.3753,-7.3754,-7.3755,-7.3843,-7.3845,-7.3846,-7.3802,-7.38,-7.3797,-7.3794,-7.3879,-7.3884,-7.3889,0,0,0,0,0,0,0,0,0,0,0,0,0,-7.3628,-7.3541,-7.3753,-7.3744,-7.3744,-7.3843,-7.3845,-7.3846,-7.3803,-7.3799,-7.3796,-7.3793,-7.3877,-7.3884,-7.389,-7.4,0,0,-7.391,-7.3913,0,0,0,0,0,0,0,0,-7.3623,-7.3636,-7.3744,-7.3745,-7.3745,-7.3808,-7.3799,-7.3897,-7.3804,-7.378,-7.3795,-7.3791,-7.3859,-7.3867,-7.3891,-7.4004,-7.4008,-7.3911,-7.3915,-7.3918,-7.392,0,0,0,0,0,0,0,-7.3616,-7.3632,-7.3788,-7.3746,-7.3747,-7.3734,-7.3743,-7.3817,-7.3837,-7.3782,-7.3779,-7.3791,-7.3858,-7.3885,-7.3893,-7.4009,-7.3911,-7.3917,-7.3921,-7.3923,-7.4217,-7.422,0,0,0,0,0,0,-7.3611,-7.3627,-7.3786,-7.3791,-7.3675,-7.374,-7.3751,-7.3791,-7.3837,-7.384,-7.3794,-7.3789,-7.3875,-7.3885,-7.3895,-7.4027,-7.3918,-7.3924,-7.3928,-7.4213,-7.4217,-7.4222,0,0,0,0,0,0,-7.3607,-7.3626,-7.3782,-7.3708,-7.3727,-7.3748,-7.3794,-7.3795,-7.3821,-7.3846,-7.3848,-7.3818,-7.3873,-7.3886,-7.3975,-7.4029,-7.3927,-7.3933,-7.4208,-7.4214,-7.4219,-7.4291,0,0,0,0,0,0,-7.3601,-7.3625,-7.3668,-7.371,-7.3731,-7.3862,-7.3797,-7.3799,-7.3834,-7.3828,-7.3869,-7.3872,-7.3871,-7.3965,-7.3982,-7.4037,-7.3938,-7.4203,-7.4211,-7.4218,-7.4284,-7.4299,-7.4311,0,0,0,0,0,-7.3593,-7.3683,-7.3671,-7.369,-7.3787,-7.3865,-7.3877,-7.3877,-7.3838,-7.3881,-7.3897,-7.3871,-7.4021,-7.3975,-7.3993,-7.4051,-7.42,-7.4209,-7.4217,-7.4278,-7.4296,-7.4311,0,0,0,0,0,0,-7.3644,-7.3688,-7.3675,-7.3781,-7.3821,-7.3858,-7.3912,-7.3896,-7.3944,-7.3936,-7.3931,-7.394,-7.4033,-7.405,-7.3998,-7.4159,-7.4104,-7.4117,-7.4144,-7.4162,-7.4175,-7.4168,-7.3944,0,0,0,0,0,-7.3668,-7.3731,-7.3765,-7.3856,-7.3876,-7.3891,-7.3925,-7.3922,-7.3961,-7.3976,-7.3998,-7.4035,-7.4091,-7.4127,-7.4179,-7.4287,-7.4294,-7.4335,-7.4349,-7.436,-7.4371,-7.4428,-7.4447,-7.425,-7.425,-7.425,0,0,-7.3717,-7.3749,-7.3789,-7.3867,-7.3896,-7.396,-7.3905,-7.3974,-7.402,-7.3986,-7.4072,-7.4089,-7.413,-7.4229,-7.4273,-7.4246,-7.4427,-7.4371,-7.438,-7.4384,-7.4439,-7.4458,-7.4474,-7.4256,-7.4255,-7.4254,0,0,-7.384,-7.3871,-7.395,-7.3982,-7.4029,-7.4038,-7.4058,-7.4098,-7.411,-7.4197,-7.4172,-7.4226,-7.4322,-7.4352,-7.438,-7.4515,-7.4493,-7.4532,-7.4603,-7.4659,-7.4675,-7.4689,-7.4737,-7.4754,-7.4543,-7.4543,-7.4543,0,-7.3895,-7.3991,-7.3992,-7.4064,-7.4098,-7.4073,-7.4152,-7.4182,-7.4243,-7.4266,-7.4236,-7.4356,-7.4382,-7.4487,-7.4521,-7.4544,-7.4564,-7.4527,-7.4673,-7.4687,-7.47,-7.4745,-7.4763,-7.4548,-7.4547,-7.4547,-7.4546,0,-7.4056,-7.4124,-7.4181,-7.4244,-7.4285,-7.436,-7.437,-7.4411,-7.4404,-7.4416,-7.4504,-7.4535,-7.4593,-7.4618,-7.461,-7.4722,-7.4704,-7.4674,-7.4618,-7.4723,-7.4766,-7.4783,-7.4554,-7.4552,-7.4551,-7.455,0,0,-7.4212,-7.4276,-7.4297,-7.4325,-7.4376,-7.4427,-7.45,-7.456,-7.4595,-7.4637,-7.4698,-7.478,-7.4753,-7.4785,-7.478,-7.483,-7.4935,-7.4793,-7.4794,-7.4818,-7.506,-7.5082,-7.5103,-7.4921,-7.4924,-7.4927,-7.5056,0,-7.4338,-7.4469,-7.4473,-7.4592,-7.4654,-7.4631,-7.4695,-7.4732,-7.4745,-7.4798,-7.4811,-7.487,-7.483,-7.4849,-7.4897,-7.4912,-7.4984,-7.4903,-7.4975,-7.4978,-7.4966,-7.5125,-7.5149,-7.527,-7.5073,-7.5076,-7.5078,0,-7.4502,-7.4554,-7.468,-7.4723,-7.4749,-7.4806,-7.4862,-7.4913,-7.4954,-7.496,-7.4997,-7.4985,-7.5058,-7.5001,-7.51,-7.5046,-7.5075,-7.5087,-7.5092,-7.5098,-7.5034,-7.5135,-7.5308,-7.5326,-7.5104,-7.5102,-7.51,0,-7.4603,-7.4703,-7.4792,-7.4817,-7.4869,-7.491,-7.4933,-7.4971,-7.5007,-7.5055,-7.5078,-7.5132,-7.5162,-7.5203,-7.5206,-7.5165,-7.5306,-7.5249,-7.5312,-7.5312,-7.5342,-7.534,-7.5522,-7.5362,-7.5362,-7.5361,-7.5361,0,-7.4743,-7.4821,-7.4839,-7.4893,-7.498,-7.4982,-7.5067,-7.5086,-7.512,-7.5176,-7.5159,-7.5212,-7.5213,-7.5266,-7.5269,-7.535,-7.5364,-7.5369,-7.5369,-7.5371,-7.537,-7.539,-7.5381,-7.5366,-7.5365,-7.5364,-7.5363,0,-7.4869,-7.4885,-7.498,-7.5023,-7.5035,-7.5097,-7.5132,-7.5183,-7.5196,-7.5267,-7.5284,-7.5303,-7.5365,-7.5373,-7.5444,-7.5445,-7.5544,-7.5534,-7.5531,-7.5529,-7.5591,-7.5585,-7.5791,-7.5818,-7.5642,-7.5643,-7.5645,0,-7.4958,-7.5018,-7.5068,-7.5106,-7.5132,-7.5193,-7.5231,-7.5235,-7.5275,-7.5326,-7.5371,-7.5432,-7.5481,-7.5581,-7.5599,-7.5653,-7.5645,-7.5714,-7.5653,-7.5653,-7.5646,-7.5642,-7.5648,-7.5725,-7.5727,-7.5728,-7.573,0,-7.5112,-7.5117,-7.5174,-7.5234,-7.528,-7.5326,-7.5369,-7.5401,-7.541,-7.5455,-7.552,-7.5558,-7.5633,-7.5693,-7.5747,-7.5768,-7.575,-7.5749,-7.5766,-7.5768,-7.5764,-7.5767,-7.5563,-7.5744,-7.5743,-7.5741,-7.5741,-7.574,-7.5222,-7.5275,-7.5319,-7.5382,-7.5416,-7.5458,-7.5508,-7.5529,-7.5584,-7.5647,-7.5645,-7.5716,-7.5755,-7.5826,-7.5852,-7.5906,-7.5883,-7.5908,-7.5914,-7.592,-7.5926,-7.5756,-7.5915,-7.5915,-7.5915,-7.5914,-7.5914,0,-7.5376,-7.5404,-7.5462,-7.5525,-7.5575,-7.5558,-7.5605,-7.5647,-7.5711,-7.575,-7.5799,-7.5874,-7.5932,-7.5956,-7.6013,-7.6052,-7.6045,-7.6067,-7.6063,-7.6068,-7.5943,-7.5923,-7.6071,-7.6071,-7.6071,-7.6071,-7.6071,-7.6071,-7.5461,-7.555,-7.5561,-7.5665,-7.5692,-7.5764,-7.5792,-7.583,-7.5861,-7.5946,-7.5996,-7.6012,-7.6045,-7.6105,-7.6157,-7.6162,-7.6184,-7.6209,-7.621,-7.6093,-7.6077,-7.6062,-7.6043,-7.6214,-7.6214,-7.6331,-7.6332,-7.6333]}]]